Downstream station:
SHEF ID: ENWK1 CROOKED C NR ENGLEWOOD, KS
STATION TYPE:
Regulating: Stage = 6.50, Flow = 243
PRECIP STAGE RIV-FLOW BAT-LOAD
in ft cfs volt
Ccp-Rev Ccp-Rev Ccp-Rev Ccp-Rev
(US/Central)
02/08 00:00 0.00 2.42 3 12.89
02/08 01:00 0.00 2.42 3 12.89
02/08 02:00 0.00 2.42 3 12.83
02/08 03:00 0.00 2.41 3 12.83
02/08 04:00 0.00 2.42 3 12.77
02/08 05:00 0.00 2.41 3 12.77
02/08 06:00 0.00 2.41 3 12.71
02/08 07:00 0.00 2.41 3 12.71
02/08 08:00 0.00 2.41 3 12.65
02/08 09:00 0.00 2.41 3 14.30
02/08 10:00 0.00 2.42 3 14.65
02/08 11:00 0.00 2.43 3 14.53
02/08 12:00 0.00 2.42 3 14.35
02/08 13:00 0.00 2.44 4 14.30
02/08 14:00 0.00 2.44 4 14.24
02/08 15:00 0.00 2.43 3 14.18
02/08 16:00 0.00 2.43 3 14.24
02/08 17:00 0.00 2.43 3 14.06
02/08 18:00 0.00 2.42 3 14.00
02/08 19:00 0.00 2.42 3 13.48
02/08 20:00 0.00 2.42 3 13.07
02/08 21:00 0.00 2.42 3 13.00
02/08 22:00 0.00 2.42 3 12.95
02/08 23:00 ---- ---- ---- ----